Temperature
22 21 21 20 19 19 20 20 20 21 21 21 21 21 20 19 19 20 19 20 20 20 20 20 20 20 20 20 20 20 20 20 20 20 20 20 20 20 20 20 19 19 19 19 19 19 19 19 19
22 22 21 21 19 19 20 20 20 21 21 22 21 21 20 19 19 20 20 20 20 20 20 20 20 20 20 20 20 20 20 20 20 20 20 20 19 19 19 19 19 19 19 19 19 19 19 19 19
22 22 22 19 19 20 21 20 20 21 21 21 21 20 19 18 19 20 20 20 20 20 20 20 20 20 20 20 20 20 20 20 20 19 19 19 19 19 19 19 19 19 19 19 19 19 19 19 19
23 22 22 19 20 19 19 19 20 21 21 20 20 19 18 18 19 19 20 20 20 20 20 20 19 19 19 19 19 19 19 19 19 19 19 19 19 19 19 19 19 19 19 19 19 19 19 19 18
23 22 19 19 20 19 19 19 20 20 20 19 19 18 18 18 19 19 19 19 19 19 19 19 19 19 19 19 19 19 19 19 19 19 19 19 19 19 19 19 19 19 19 19 19 19 18 18 18
23 21 19 20 20 19 19 19 19 19 19 18 19 18 17 18 18 19 19 19 19 18 18 18 18 18 19 19 19 19 19 19 19 19 19 19 19 19 19 19 19 19 19 19 19 19 18 18 18
23 19 20 20 19 19 19 19 18 18 18 17 18 18 17 17 18 18 18 18 18 18 18 18 18 18 18 18 18 19 19 19 19 19 19 19 19 19 19 19 19 19 19 19 19 19 18 18 18
24 19 20 19 20 19 19 18 18 17 17 17 17 17 17 17 17 18 18 18 18 18 18 18 18 18 18 18 18 18 18 18 18 19 19 19 19 19 19 19 19 19 19 19 19 19 18 18 18
24 19 20 20 20 18 18 18 18 17 17 17 17 16 16 17 17 17 18 17 17 17 17 17 17 18 18 18 18 18 18 18 18 18 18 18 18 18 18 18 19 19 19 19 18 18 18 18 18
23 19 20 19 18 17 17 17 18 17 17 17 17 16 17 17 17 17 17 17 17 17 17 17 17 17 17 17 18 18 18 18 18 18 18 18 18 18 18 18 18 18 18 18 18 18 18 18 18
21 19 19 18 18 18 17 17 17 17 16 16 16 16 17 17 17 17 17 17 16 16 16 16 17 17 17 17 17 17 17 18 18 18 18 18 18 18 18 18 18 18 18 18 18 18 18 18 18
19 19 19 19 18 18 17 17 17 17 17 17 16 17 17 17 17 16 16 16 16 16 16 16 16 16 16 16 17 17 17 17 17 17 17 17 17 18 18 18 18 18 18 18 18 18 18 18 18
19 18 18 18 18 17 17 17 17 16 17 17 17 17 17 16 16 16 16 16 16 16 16 16 16 16 16 16 16 16 16 16 17 17 17 17 17 17 17 18 18 18 18 18 18 18 18 18 18
19 18 18 18 18 18 17 17 17 16 17 17 17 16 16 16 16 15 15 15 15 15 15 15 15 15 15 15 15 15 16 16 16 16 17 17 17 17 17 17 18 18 18 18 18 18 18 18 18
19 18 18 18 18 17 18 16 16 16 17 16 16 16 16 15 15 15 15 15 14 14 14 14 14 14 15 15 15 15 15 15 16 16 16 16 17 17 17 17 17 17 17 17 17 17 17 18 18
19 18 18 18 18 18 17 16 16 16 16 16 16 16 15 15 15 15 14 14 14 14 14 14 14 14 14 14 14 14 14 15 15 15 16 16 16 16 17 17 17 17 17 17 17 17 17 18 18
19 18 18 18 18 17 17 16 16 16 16 15 15 15 15 15 15 14 14 14 14 13 13 13 13 13 13 14 14 14 14 14 15 15 15 15 16 16 16 17 17 17 17 17 17 17 17 17 18
19 19 18 17 17 17 16 15 15 16 16 15 15 15 15 15 14 14 14 13 13 13 13 13 13 13 13 13 13 14 14 14 14 14 14 15 15 16 16 16 16 17 17 17 17 17 17 17 17
20 19 18 18 17 16 15 15 15 15 15 15 15 15 15 15 14 14 14 13 13 13 13 13 13 13 13 13 13 13 14 14 14 14 14 14 15 15 15 16 16 16 16 17 17 17 17 17 17
18 18 17 17 17 16 15 15 15 15 15 15 15 15 15 14 14 14 14 13 13 13 13 13 12 12 12 12 13 13 13 13 13 13 13 14 14 14 15 15 15 16 16 16 16 16 16 17 16
18 17 17 17 16 15 15 14 14 15 15 15 15 15 15 14 14 14 14 13 13 13 13 12 12 12 12 12 12 13 13 13 13 13 13 13 13 14 14 15 15 15 15 16 16 16 16 16 16
19 19 18 17 15 14 15 14 14 13 14 14 14 15 15 14 14 14 14 13 13 13 12 12 12 12 12 12 12 12 12 12 12 12 13 13 13 13 14 14 15 15 15 15 16 16 16 16 16
18 18 17 17 15 14 14 14 13 13 13 13 14 15 15 14 14 14 14 13 13 13 12 12 12 12 12 12 12 12 12 12 12 12 12 13 13 13 13 14 14 14 15 15 15 15 15 16 16
17 16 15 13 13 14 15 14 14 12 13 13 14 15 15 15 14 14 14 14 13 13 13 12 12 12 12 11 11 11 12 12 12 12 12 12 12 13 13 13 14 14 14 15 15 15 15 15 15
16 15 14 15 14 14 15 14 13 14 13 14 14 15 15 15 15 14 14 14 13 13 13 12 12 12 12 11 11 11 11 11 11 11 12 12 12 12 13 13 13 14 14 14 14 15 15 15 15
16 15 15 16 14 13 14 14 14 15 15 15 15 15 15 15 15 15 14 14 14 13 13 12 12 12 11 11 11 11 11 11 11 11 11 11 12 12 12 13 13 13 13 14 14 14 15 15 15
16 14 14 13 14 14 13 14 14 14 14 14 15 15 15 15 15 15 15 14 14 13 13 12 12 12 11 11 11 11 11 11 11 11 11 11 11 12 12 12 13 13 13 13 14 14 14 14 15
17 13 12 13 14 14 14 14 14 15 13 13 13 14 15 15 15 15 15 14 14 13 13 12 12 12 11 11 11 11 11 11 11 11 11 11 11 12 12 12 12 13 13 13 13 14 14 14 14
16 15 12 11 12 13 13 13 14 15 14 13 14 15 16 16 15 15 15 15 14 14 13 13 12 12 11 11 11 11 11 11 11 11 11 11 11 11 12 12 12 12 12 13 13 13 13 14 14
17 16 13 14 13 11 12 12 14 14 14 14 15 16 16 16 16 15 15 15 14 14 13 13 12 12 12 11 11 11 11 10 11 10 10 11 11 11 11 11 12 12 12 12 12 13 13 13 13
Wind_Speed
10 9 4 3 4 6 5 7 5 5 4 3 5 6 6 5 2 1 1 5 6 6 8 10 10 10 10 10 10 10 10 10 10 10 10 10 9 9 9 8 7 7 6 5 5 5 5 5 5
8 5 3 4 5 4 4 6 6 6 2 1 5 6 7 6 3 2 1 4 6 7 8 9 10 10 10 10 9 9 9 9 9 9 9 9 9 8 8 8 7 6 6 5 5 4 4 4 4
6 2 3 4 4 3 2 4 4 5 8 5 5 6 5 5 5 2 1 6 6 6 7 8 10 10 10 10 9 9 9 9 9 9 9 9 9 8 8 8 7 7 6 5 4 4 4 4 4
4 3 5 6 5 3 3 4 5 4 7 9 4 6 5 6 6 3 3 5 5 3 5 7 9 10 10 10 10 10 10 10 9 9 9 9 9 8 8 8 7 7 6 5 5 4 4 3 3
4 4 6 5 4 3 4 6 7 6 5 8 6 5 5 8 10 9 6 4 3 2 1 4 7 8 9 10 10 10 10 10 10 10 10 9 9 9 9 8 8 7 7 6 6 5 4 4 3
4 4 5 3 2 2 3 5 5 6 5 6 6 4 3 8 11 9 8 8 6 5 4 4 4 6 8 9 10 11 11 11 11 11 11 10 10 10 9 9 8 8 8 7 6 6 5 5 4
4 5 5 5 3 2 1 2 4 5 6 7 6 4 3 7 9 8 8 8 8 8 7 7 8 6 6 7 9 11 11 11 12 12 12 11 11 11 10 10 10 9 8 8 7 7 6 6 5
5 5 5 3 4 2 1 2 4 6 4 5 5 5 4 5 6 6 8 8 7 6 6 6 7 9 9 9 9 10 11 12 12 12 12 12 12 12 12 11 11 10 10 9 8 8 8 7 6
4 5 3 3 5 4 1 3 3 4 6 6 6 5 3 4 5 7 8 7 7 8 7 6 7 8 9 9 9 10 9 10 11 11 11 11 11 11 11 12 11 12 11 10 10 9 9 8 6
5 4 2 1 4 6 3 4 4 4 6 5 5 6 6 6 7 9 8 8 7 7 6 5 5 6 8 7 8 8 8 8 8 8 9 9 9 10 11 11 13 13 13 12 11 10 9 8 5
5 5 4 4 5 6 5 3 3 5 5 3 3 4 5 8 9 8 7 6 5 5 6 6 5 6 6 5 6 6 6 6 7 7 8 7 7 8 8 8 9 11 12 10 10 10 8 6 5
6 5 5 5 5 5 5 4 5 4 3 2 3 4 5 8 8 7 7 7 6 7 7 7 5 5 6 6 5 5 5 5 5 6 7 5 4 4 5 6 7 8 8 7 8 6 7 6 6
5 4 5 8 10 8 8 6 6 4 3 5 7 8 7 7 6 6 6 6 7 7 8 8 6 5 5 5 4 4 4 5 6 6 7 6 4 4 4 5 7 8 9 7 6 6 6 5 6
7 9 8 7 7 4 7 4 4 2 3 6 7 6 6 6 5 6 7 7 7 7 8 7 7 6 5 4 4 4 5 6 6 5 6 7 6 5 4 5 5 6 8 8 7 6 5 5 4
8 8 6 3 3 3 6 5 2 2 5 7 6 5 5 5 6 5 5 5 6 6 7 8 7 6 6 6 5 5 6 6 5 6 7 8 7 6 5 5 6 6 8 8 5 5 5 4 5
5 6 3 2 3 3 3 2 1 2 6 6 4 4 4 4 4 4 5 5 6 7 7 8 8 8 7 6 5 5 6 6 5 7 7 8 8 8 5 5 5 6 6 5 5 5 5 5 5
3 3 3 3 4 3 4 4 2 2 5 4 3 2 3 4 5 5 5 5 6 7 7 8 8 8 8 7 6 6 6 5 6 6 6 7 8 7 5 5 5 6 5 5 6 5 5 4 5
5 4 3 4 3 4 4 3 2 2 4 4 2 1 2 4 5 6 6 6 6 6 6 7 8 8 8 6 5 4 4 4 5 5 6 7 7 7 5 4 5 5 5 6 6 6 5 4 4
6 6 3 2 3 4 4 3 3 2 3 3 1 2 3 5 6 6 6 6 6 7 7 7 8 8 7 5 5 5 5 5 5 4 6 7 7 7 5 5 5 5 6 7 7 5 6 5 4
7 6 4 3 3 3 2 2 3 3 3 4 3 4 4 5 6 7 7 6 6 7 7 7 8 8 7 5 4 4 5 4 4 4 6 8 7 7 5 5 5 5 5 6 7 6 5 5 5
4 5 5 4 3 4 3 4 4 3 2 2 3 4 5 5 7 7 7 7 7 7 7 7 8 8 7 7 5 5 4 4 4 5 5 6 8 7 6 6 5 5 6 6 7 8 8 6 6
2 1 4 6 4 1 1 4 6 5 4 4 5 5 6 7 7 7 8 8 8 7 7 7 7 7 7 7 6 6 5 5 5 5 6 8 7 6 6 5 6 6 6 7 7 7 7 7 6
3 4 5 4 4 2 0 2 7 1 6 8 7 7 7 7 7 8 8 7 7 6 6 6 7 7 7 7 6 6 6 5 6 6 7 7 6 6 5 5 4 5 5 7 7 6 7 7 7
5 7 7 6 5 2 3 4 7 5 7 5 5 7 7 7 7 8 7 6 6 6 5 6 6 6 7 7 6 6 7 8 8 9 8 7 6 5 6 5 4 4 4 6 7 7 8 8 7
6 6 4 5 4 5 2 3 8 5 7 6 6 7 7 7 7 8 8 8 7 7 6 6 6 6 7 7 7 6 7 7 7 8 7 7 6 5 7 6 5 4 4 4 5 6 7 8 8
3 7 6 3 3 5 3 5 7 4 4 5 5 6 6 7 7 8 8 7 6 7 6 5 6 6 6 7 7 6 6 5 5 6 6 7 6 6 7 7 6 5 4 4 3 4 6 6 8
5 3 5 6 1 3 6 7 7 1 3 4 5 6 8 8 8 8 7 6 6 6 5 5 5 6 6 6 6 7 7 6 6 7 6 6 6 6 8 7 7 6 5 4 3 2 3 4 6
4 8 5 4 1 4 7 6 5 6 8 8 7 8 9 8 7 8 7 6 5 4 4 4 4 4 5 5 5 5 6 6 6 6 8 8 8 8 8 7 7 7 6 5 4 2 2 2 3
4 4 5 4 4 4 4 7 6 7 7 9 10 9 9 8 8 7 6 5 5 4 4 3 4 4 5 5 5 5 6 6 6 6 7 7 7 8 9 8 7 7 7 6 5 4 3 1 1
4 5 6 4 3 4 3 8 6 7 7 8 9 8 8 7 7 6 6 5 5 5 4 4 4 4 4 4 4 5 5 6 6 7 7 7 8 8 8 8 8 7 7 7 6 5 4 3 2
Wind_Direction
149 134 111 82 55 51 30 347 349 27 54 38 45 63 76 62 62 94 341 135 139 143 162 169 170 170 170 171 169 168 167 165 164 162 161 159 158 157 157 156 154 152 150 148 145 140 133 126 119
136 132 95 64 72 60 10 350 19 29 82 103 49 53 62 52 37 67 119 149 142 148 156 168 176 176 177 180 180 180 178 178 178 177 175 173 169 167 167 166 165 164 162 160 158 156 152 142 132
140 114 82 65 72 100 72 2 25 35 37 41 54 46 54 28 353 326 202 146 139 149 158 174 181 182 183 187 189 190 190 189 188 188 188 186 182 179 178 177 177 177 175 174 173 173 170 162 148
120 57 54 66 69 33 35 356 340 1 27 25 50 54 56 22 347 355 83 123 134 139 163 187 188 189 190 192 194 195 197 196 196 197 198 196 192 191 190 188 188 189 188 188 189 191 190 185 175
70 79 65 58 56 35 23 12 17 33 34 20 37 62 34 4 13 40 56 69 81 83 154 221 210 205 204 203 204 204 203 203 204 205 205 203 201 201 200 199 200 199 200 200 201 205 208 209 205
66 70 81 93 79 56 19 8 24 31 29 17 22 68 54 9 21 29 45 47 44 43 27 353 287 241 229 223 221 217 215 213 213 213 213 212 211 210 209 209 209 207 207 205 207 212 218 223 226
109 91 111 134 134 107 81 38 34 11 31 14 356 59 58 18 15 29 46 49 42 35 30 13 357 341 304 265 246 236 230 226 224 222 220 219 219 218 217 216 216 213 212 212 213 218 224 230 233
122 100 98 134 149 134 46 73 61 35 33 14 21 52 24 356 5 39 50 46 40 31 23 9 357 357 347 330 299 272 255 244 238 235 231 229 228 227 225 223 224 221 219 220 220 222 228 233 236
92 79 129 176 164 139 69 93 69 51 58 47 47 56 38 14 35 43 43 38 29 25 14 5 357 354 347 336 331 321 298 275 262 251 244 239 236 235 235 232 230 229 228 227 226 225 228 232 237
73 109 147 114 134 128 92 74 97 75 52 47 52 41 33 36 44 47 38 28 19 9 0 360 346 345 346 343 338 331 321 311 294 272 256 245 234 234 238 239 239 237 234 233 231 227 228 229 224
75 109 109 85 107 114 105 79 54 107 64 44 64 35 33 43 44 43 33 22 8 354 352 347 339 336 336 332 332 327 322 319 316 307 288 265 245 238 239 236 246 248 243 235 232 229 220 208 202
89 62 91 114 104 94 102 103 77 68 104 86 82 73 58 51 42 34 26 15 3 1 353 349 343 337 331 331 327 322 325 323 316 305 292 276 257 242 234 229 230 234 237 228 220 209 206 203 205
88 93 65 87 85 85 87 84 96 62 64 79 77 69 63 56 42 28 24 18 10 0 349 343 345 342 331 327 321 323 314 309 306 306 301 275 254 249 242 238 232 227 225 220 211 203 199 202 205
99 97 95 81 79 81 95 76 82 86 84 79 74 67 57 50 33 24 17 8 359 350 342 336 340 346 340 327 312 303 302 303 300 295 296 290 269 250 242 242 232 230 224 217 208 199 196 201 203
102 92 76 73 84 120 104 56 50 118 90 76 70 67 56 37 28 19 1 352 345 339 336 336 337 350 339 328 316 313 304 305 298 293 294 289 277 263 247 243 236 232 226 214 201 199 196 204 209
88 97 118 186 139 147 120 153 230 115 100 86 74 55 41 14 5 351 347 343 340 339 336 334 342 340 335 328 315 310 307 303 295 293 291 288 282 269 256 250 245 234 221 210 202 197 199 208 209
90 142 177 178 168 137 144 180 208 120 117 112 92 50 15 350 339 332 334 336 335 335 333 333 337 337 334 327 317 310 308 302 299 298 292 288 285 277 255 245 244 234 218 212 212 201 198 205 210
190 181 176 187 169 128 141 169 155 127 137 140 124 7 330 325 313 312 319 323 325 327 331 332 337 339 335 328 323 315 314 309 306 302 297 296 292 285 268 251 243 230 221 218 213 205 199 202 203
147 143 146 152 121 120 152 173 192 164 152 161 209 274 295 302 302 313 316 318 326 334 337 336 339 339 344 342 337 328 322 316 314 308 310 308 301 293 273 261 248 230 226 222 213 205 206 206 176
102 119 123 87 67 98 129 249 247 208 205 208 227 254 276 298 313 317 319 321 325 327 330 333 336 335 340 336 320 301 299 300 297 303 314 312 309 301 287 259 248 236 232 227 215 202 198 200 179
83 145 163 148 72 60 77 317 254 246 217 225 240 254 270 280 291 302 312 312 319 324 326 329 328 331 335 337 333 330 325 318 327 328 323 315 312 303 289 270 255 242 230 229 221 209 201 205 194
115 96 138 130 117 271 136 290 279 240 249 252 254 266 274 283 287 295 303 310 315 313 320 323 326 331 336 343 350 351 345 334 320 317 309 311 309 305 298 280 260 247 237 234 228 218 209 201 199
130 65 90 111 120 52 42 211 290 237 253 254 250 253 264 275 282 291 295 299 306 313 323 326 333 335 338 344 347 346 339 325 319 320 322 325 321 316 314 298 276 256 243 237 231 224 215 208 200
108 70 58 54 72 333 229 184 281 230 224 239 234 241 256 271 285 293 298 308 312 318 325 334 339 333 337 343 346 347 339 334 337 339 339 335 329 323 327 317 296 278 261 246 235 225 219 216 208
72 80 33 2 6 264 256 210 253 252 222 214 220 235 251 266 281 292 303 311 313 317 322 329 336 331 335 341 342 342 338 336 336 333 334 336 334 330 331 330 315 295 277 263 245 226 222 216 212
91 123 146 204 249 290 308 248 258 263 229 219 223 234 255 271 279 284 289 295 299 303 313 324 328 325 331 338 337 339 343 339 333 333 336 337 333 325 330 335 338 330 312 290 262 239 227 218 216
112 101 150 131 176 292 291 287 304 220 239 233 240 247 259 270 280 282 288 292 292 295 303 310 314 320 328 334 336 341 346 346 342 340 344 341 338 338 343 345 349 348 345 333 305 262 242 223 217
107 138 97 105 124 301 302 289 267 258 248 244 242 243 254 269 280 285 286 285 289 289 296 311 311 311 318 332 338 345 343 345 344 347 351 348 344 346 346 352 353 355 355 353 349 326 288 244 226
113 90 101 106 144 159 296 283 231 233 236 230 234 236 243 259 273 278 282 285 288 293 301 309 317 322 327 334 338 344 344 345 349 352 350 346 346 349 352 351 353 356 356 357 358 354 343 309 267
163 159 146 147 203 170 200 270 266 247 247 228 233 239 243 255 267 271 278 289 293 294 299 300 308 317 320 327 339 345 345 348 352 348 344 345 347 348 349 352 355 357 356 355 358 357 349 336 317
Height
1522 1522 1524 1526 1529 1538 1543 1540 1534 1531 1531 1532 1531 1531 1532 1536 1539 1543 1539 1538 1540 1542 1543 1545 1547 1548 1550 1551 1552 1553 1554 1555 1555 1556 1557 1557 1558 1558 1559 1559 1560 1560 1560 1561 1561 1561 1561 1562 1562
1522 1523 1526 1527 1536 1551 1548 1540 1537 1534 1533 1532 1532 1533 1534 1537 1538 1539 1539 1540 1541 1543 1545 1546 1547 1549 1550 1551 1552 1553 1554 1554 1555 1556 1556 1557 1557 1558 1558 1559 1559 1559 1560 1560 1561 1561 1561 1562 1562
1524 1525 1527 1530 1541 1549 1547 1541 1538 1536 1534 1534 1535 1536 1538 1541 1541 1541 1541 1542 1543 1544 1546 1547 1548 1549 1550 1551 1552 1553 1553 1554 1554 1555 1556 1556 1557 1557 1557 1558 1558 1559 1559 1560 1560 1561 1561 1562 1562
1525 1527 1529 1536 1545 1545 1544 1542 1538 1537 1536 1537 1537 1540 1542 1544 1543 1543 1543 1543 1544 1546 1547 1548 1549 1550 1551 1551 1552 1552 1553 1553 1553 1554 1555 1555 1556 1556 1556 1557 1557 1558 1558 1559 1559 1560 1561 1561 1562
1526 1527 1535 1545 1546 1545 1543 1542 1540 1540 1540 1541 1540 1543 1545 1546 1545 1544 1544 1545 1546 1547 1548 1549 1549 1550 1551 1551 1551 1552 1552 1552 1553 1553 1553 1554 1554 1555 1555 1556 1556 1556 1557 1558 1558 1559 1560 1561 1561
1527 1529 1544 1551 1548 1546 1545 1544 1543 1543 1543 1543 1544 1545 1548 1548 1547 1546 1546 1546 1547 1548 1548 1548 1549 1549 1550 1550 1550 1551 1551 1551 1551 1552 1552 1552 1553 1553 1554 1554 1555 1555 1556 1556 1557 1558 1559 1560 1560
1528 1533 1543 1547 1549 1547 1547 1546 1547 1547 1547 1547 1547 1547 1550 1549 1549 1548 1547 1547 1547 1548 1548 1548 1548 1548 1548 1549 1549 1549 1549 1549 1550 1550 1550 1551 1551 1552 1552 1553 1553 1554 1554 1555 1555 1556 1557 1558 1559
1526 1533 1543 1546 1547 1548 1547 1548 1549 1549 1549 1550 1549 1550 1552 1552 1550 1549 1548 1548 1547 1548 1548 1547 1547 1547 1547 1547 1547 1547 1547 1547 1548 1548 1548 1549 1549 1550 1550 1551 1551 1552 1553 1553 1554 1554 1555 1556 1557
1527 1537 1546 1545 1546 1547 1548 1549 1551 1552 1552 1552 1552 1553 1554 1553 1551 1550 1549 1549 1548 1548 1547 1546 1546 1545 1545 1545 1544 1544 1544 1545 1545 1545 1546 1546 1546 1547 1548 1549 1549 1550 1551 1551 1552 1552 1553 1554 1555
1527 1541 1542 1542 1542 1545 1548 1549 1551 1553 1553 1555 1555 1555 1555 1554 1553 1551 1550 1549 1549 1548 1547 1546 1545 1544 1543 1543 1542 1542 1541 1542 1542 1542 1543 1543 1544 1544 1545 1546 1547 1548 1548 1549 1550 1550 1551 1552 1553
1530 1538 1540 1542 1543 1545 1548 1550 1552 1553 1556 1557 1557 1557 1556 1555 1553 1552 1551 1551 1550 1548 1547 1546 1544 1543 1541 1540 1540 1539 1539 1538 1538 1539 1539 1540 1541 1541 1542 1543 1544 1545 1546 1547 1548 1548 1549 1550 1551
1534 1539 1540 1544 1545 1546 1549 1551 1553 1555 1557 1558 1557 1557 1557 1556 1554 1553 1552 1551 1550 1548 1547 1545 1543 1542 1540 1539 1537 1536 1536 1535 1535 1535 1536 1536 1537 1538 1539 1540 1541 1542 1543 1544 1545 1546 1547 1548 1549
1536 1541 1543 1545 1546 1548 1550 1552 1554 1557 1558 1558 1558 1558 1557 1556 1555 1554 1553 1551 1549 1548 1546 1544 1542 1540 1538 1537 1535 1534 1533 1532 1532 1531 1532 1532 1533 1534 1535 1536 1537 1538 1540 1541 1542 1543 1544 1545 1546
1538 1542 1546 1548 1548 1551 1552 1555 1556 1558 1558 1558 1558 1558 1558 1557 1556 1554 1552 1550 1548 1546 1544 1542 1540 1537 1535 1534 1532 1531 1530 1530 1529 1528 1528 1529 1529 1530 1530 1531 1533 1534 1536 1537 1538 1540 1541 1542 1544
1540 1545 1549 1550 1550 1553 1554 1558 1558 1559 1558 1558 1558 1558 1558 1557 1556 1554 1552 1549 1547 1544 1542 1539 1537 1534 1532 1530 1529 1527 1527 1526 1525 1525 1524 1524 1525 1525 1526 1527 1528 1530 1532 1533 1535 1536 1537 1539 1541
1542 1549 1555 1552 1552 1553 1557 1563 1559 1559 1558 1558 1559 1559 1558 1557 1556 1554 1551 1549 1546 1543 1540 1537 1534 1531 1529 1527 1525 1524 1522 1521 1521 1521 1521 1520 1520 1521 1522 1523 1524 1526 1527 1529 1530 1532 1534 1535 1537
1547 1553 1555 1554 1552 1553 1556 1560 1559 1559 1558 1559 1559 1558 1558 1557 1555 1553 1551 1548 1545 1541 1538 1535 1532 1529 1526 1524 1522 1520 1518 1517 1517 1516 1516 1516 1516 1516 1517 1518 1519 1521 1522 1524 1525 1527 1529 1531 1533
1550 1551 1553 1555 1552 1553 1557 1559 1558 1558 1558 1558 1558 1558 1557 1556 1555 1552 1550 1547 1544 1541 1537 1534 1530 1527 1524 1522 1519 1517 1516 1514 1513 1512 1512 1512 1512 1512 1512 1513 1515 1516 1517 1519 1521 1522 1524 1526 1529
1541 1547 1553 1553 1551 1555 1558 1559 1558 1558 1558 1558 1558 1557 1557 1555 1554 1552 1549 1546 1543 1540 1536 1533 1529 1526 1523 1520 1517 1515 1513 1511 1510 1509 1508 1507 1507 1507 1507 1508 1509 1511 1512 1514 1516 1518 1520 1521 1524
1543 1551 1554 1554 1552 1556 1560 1560 1558 1557 1557 1557 1557 1556 1556 1554 1553 1551 1548 1545 1542 1539 1536 1532 1529 1526 1522 1519 1516 1513 1511 1509 1507 1506 1504 1503 1503 1503 1503 1503 1504 1505 1507 1509 1510 1512 1514 1516 1519
1546 1551 1553 1556 1557 1558 1561 1563 1558 1556 1556 1556 1556 1555 1555 1554 1552 1550 1547 1544 1542 1538 1535 1532 1529 1525 1522 1519 1516 1513 1510 1507 1505 1503 1501 1500 1499 1499 1498 1499 1499 1500 1502 1503 1505 1507 1509 1511 1513
1549 1546 1548 1554 1562 1567 1564 1575 1560 1557 1555 1554 1554 1554 1553 1552 1551 1549 1546 1544 1541 1538 1535 1532 1528 1525 1522 1518 1515 1512 1509 1506 1503 1501 1499 1497 1496 1495 1494 1494 1495 1495 1496 1498 1500 1502 1503 1506 1508
1547 1546 1549 1554 1561 1569 1567 1573 1565 1557 1557 1553 1552 1552 1551 1551 1550 1548 1546 1543 1541 1538 1535 1532 1528 1525 1522 1518 1515 1512 1509 1506 1503 1500 1497 1495 1493 1492 1491 1490 1490 1491 1492 1493 1495 1496 1498 1500 1502
1545 1551 1556 1562 1567 1575 1567 1573 1567 1560 1553 1550 1549 1549 1550 1549 1548 1547 1545 1543 1540 1537 1534 1531 1528 1525 1522 1518 1515 1512 1509 1506 1503 1499 1496 1494 1491 1490 1488 1487 1487 1487 1487 1488 1490 1491 1493 1495 1497
1549 1561 1575 1574 1582 1578 1566 1568 1563 1549 1547 1547 1547 1547 1548 1548 1547 1546 1544 1542 1539 1537 1534 1531 1528 1525 1521 1518 1515 1512 1509 1506 1502 1499 1496 1493 1490 1488 1486 1485 1484 1483 1483 1484 1485 1486 1487 1489 1491
1552 1559 1576 1581 1584 1579 1567 1567 1554 1545 1544 1544 1545 1546 1546 1546 1545 1544 1543 1541 1538 1536 1533 1530 1528 1524 1521 1518 1515 1512 1509 1506 1503 1499 1496 1493 1490 1487 1485 1483 1482 1481 1480 1481 1481 1482 1483 1484 1486
1554 1561 1563 1575 1575 1580 1573 1562 1549 1544 1543 1543 1544 1544 1544 1544 1544 1543 1541 1539 1537 1535 1533 1530 1527 1524 1522 1519 1515 1512 1509 1506 1503 1499 1496 1493 1489 1487 1484 1482 1481 1479 1478 1478 1478 1478 1479 1480 1481
1549 1558 1568 1575 1580 1583 1576 1567 1559 1545 1544 1542 1542 1542 1542 1542 1542 1541 1540 1538 1536 1534 1532 1530 1527 1524 1522 1519 1515 1512 1509 1506 1503 1500 1496 1493 1490 1487 1484 1482 1480 1478 1477 1476 1476 1476 1476 1476 1477
1554 1559 1568 1577 1577 1585 1584 1571 1545 1541 1538 1538 1538 1539 1540 1540 1540 1539 1538 1537 1535 1533 1531 1529 1527 1524 1521 1518 1515 1512 1509 1506 1503 1500 1496 1493 1490 1487 1484 1481 1479 1477 1476 1475 1474 1474 1474 1474 1474
1548 1553 1564 1572 1575 1581 1584 1570 1537 1536 1535 1535 1535 1536 1537 1538 1538 1537 1536 1535 1534 1532 1530 1528 1526 1524 1521 1518 1515 1512 1509 1506 1503 1499 1496 1493 1490 1487 1484 1481 1479 1477 1476 1474 1473 1473 1472 1472 1472